User: anonymous   Login
Location: ??
(35.5052°N, 139.7262°E)
Time: 19:55:20
(UTC+00:00)
Language:

FENGYUN 1C DEB - Orbit

View from above orbital plane
View from above orbital plane
View from above satellite
View from above satellite

Ground track
Ground track

The orbit data is extracted from the following two-line orbital elements,

1 36167U 99025DSQ 22015.28523135  .00001022  00000-0  34711-3 0  9991
2 36167  98.9357 210.5468 0084956 164.1631 196.2241 14.36877146468567
Epoch (UTC): 15 January 2022 06:50:43
Eccentricity: 0.0084956
inclination: 98.9357°
perigee height: 708 km
apogee height: 829 km
right ascension of ascending node: 210.5468°
argument of perigee: 164.1631°
revolutions per day: 14.36877146
mean anomaly at epoch: 196.2241°
orbit number at epoch: 46856

The dashed part of the orbit path shows where the satellite is in the earth's shadow,  

DLR